Flag for Russia Weather past 2 weeks in Pyatigorsk, Russia

43 °F

Low clouds.

Feels Like: 43 °F
Forecast: 42 / 54 °F
Wind: 1 mph from North

Location: Mineral'Nye Vody

Current Time: Nov 29, 2015 at 5:05:46 PM

Latest Report: Nov 29, 2015 at 4:30 PM

Visibility: N/A

Pressure: 29.95 "Hg (28.06 "Hg at 533m altitude)

Humidity: 87%

Dew point: 39 °F

Location of PyatigorskLocation

Historic Weather in Pyatigorsk — Graph


Pyatigorsk temperature yesterday

Maximum temperature yesterday: 41 °F (at 12:00 AM)
Minimum temperature yesterday: 37 °F (at 4:30 AM)
Average temperature yesterday: 39 °F

Past Weeks' High & Low Weather Summary

High70 °F (Nov 23, 2:00 PM)100% (Nov 15, 12:00 AM)30.33 "Hg (Nov 15, 12:00 AM)
Low28 °F (Nov 19, 7:00 AM)17% (Nov 23, 2:30 PM)29.59 "Hg (Nov 17, 2:00 AM)
Average41 °F79%30.02 "Hg
* Reported Nov 14 4:00 PM — Nov 29 4:00 PM, Pyatigorsk, Weather by CustomWeather, © 2015

Note: Actual official high and low records may vary slightly from our data, if they occured in-between our weather recording intervals... More about our weather records


Pyatigorsk weather history for previous 24 hours

Time TempWeatherWind HumidityBarometerVisibility
4:00 PM
Sun, Nov 29
43 °FLow clouds.1 mph87%29.92 "HgN/A
3:30 PM43 °FOvercast.1 mph87%29.92 "HgN/A
3:00 PM43 °FLow clouds.3 mph87%29.92 "HgN/A
2:30 PM43 °FLow clouds.6 mph87%29.89 "HgN/A
2:00 PM43 °FOvercast.6 mph87%29.89 "HgN/A
1:30 PM43 °FLow clouds.8 mph87%29.89 "HgN/A
12:30 PM43 °FOvercast.8 mph87%29.89 "HgN/A
12:00 PM41 °FLow clouds.8 mph93%29.89 "HgN/A
11:30 AM41 °FOvercast.8 mph87%29.89 "HgN/A
11:00 AM41 °FLow clouds.10 mph93%29.89 "HgN/A
9:30 AM41 °FOvercast.8 mph93%29.92 "HgN/A
8:00 AM39 °FDrizzle. Low clouds.13 mph100%29.89 "HgN/A
7:30 AM39 °FDrizzle. Low clouds.15 mph100%29.92 "HgN/A
7:00 AM39 °FDrizzle. Low clouds.15 mph100%29.89 "HgN/A
6:30 AM39 °FDrizzle. Low clouds.13 mph100%29.92 "HgN/A
6:00 AM39 °FDrizzle. Low clouds.13 mph100%29.92 "Hg4 mi
5:30 AM39 °FDrizzle. Low clouds.15 mph100%29.92 "Hg6 mi
5:00 AM39 °FDrizzle. Low clouds.15 mph100%29.92 "Hg6 mi
4:30 AM39 °FDrizzle. Fog.13 mph100%29.95 "Hg3 mi
4:00 AM39 °FDrizzle. Fog.17 mph100%29.92 "Hg3 mi
3:30 AM39 °FDrizzle. Fog.13 mph100%29.95 "Hg2 mi
3:00 AM39 °FDrizzle. Low clouds.10 mph100%29.95 "Hg4 mi
2:30 AM39 °FLow clouds.13 mph93%29.98 "HgN/A
2:00 AM39 °FDrizzle. Low clouds.13 mph100%29.98 "HgN/A
1:00 AM39 °FDrizzle. Low clouds.15 mph100%29.98 "Hg4 mi
12:30 AM39 °FDrizzle. Low clouds.15 mph100%29.98 "Hg4 mi
12:00 AM39 °FDrizzle. Low clouds.15 mph100%30.01 "Hg5 mi
11:30 PM
Sat, Nov 28
39 °FDrizzle. Fog.15 mph100%30.01 "Hg3 mi
11:00 PM39 °FDrizzle. Low clouds.15 mph100%30.01 "Hg4 mi
10:30 PM39 °FDrizzle. Low clouds.17 mph100%30.04 "Hg4 mi
10:00 PM39 °FDrizzle. Low clouds.15 mph100%30.04 "Hg4 mi
9:30 PM39 °FDrizzle. Low clouds.15 mph100%30.04 "Hg4 mi
9:00 PM39 °FDrizzle. Low clouds.15 mph100%30.04 "Hg5 mi
8:30 PM39 °FDrizzle. Fog.15 mph100%30.07 "Hg3 mi
8:00 PM39 °FDrizzle. Fog.15 mph100%30.07 "Hg3 mi
7:30 PM39 °FDrizzle. Fog.17 mph100%30.07 "Hg3 mi
7:00 PM39 °FDrizzle. Fog.17 mph100%30.07 "Hg2 mi
6:30 PM39 °FDrizzle. Fog.17 mph100%30.07 "Hg2 mi
6:00 PM39 °FDrizzle. Fog.17 mph100%30.07 "Hg2 mi
5:30 PM39 °FDrizzle. Fog.17 mph100%30.09 "Hg3 mi
5:00 PM39 °FFog.17 mph100%30.09 "Hg3 mi
Weather by CustomWeather, © 2015

See weather overviewHow to use our weather pages